H1 CPF 2 NER 2025 9 24 12 267 01 glonass131 H2 1301901 9131 39155 2025 9 24 0 0 0 2025 9 27 23 45 0 900 1 1 0 0 0 1 H9 10 0 60942 0.00000 0 -11385673.401 -11601027.882 19669090.205 10 0 60942 900.00000 0 -11984278.188 -13830899.491 17770849.846 10 0 60942 1800.00000 0 -12675179.001 -15766566.810 15527501.104 10 0 60942 2700.00000 0 -13406498.334 -17369715.859 12982336.076 10 0 60942 3600.00000 0 -14121484.745 -18614155.517 10184601.560 10 0 60942 4500.00000 0 -14761031.837 -19486716.578 7188557.799 10 0 60942 5400.00000 0 -15266320.730 -19987615.789 4052430.909 10 0 60942 6300.00000 0 -15581473.656 -20130267.577 837278.786 10 0 60942 7200.00000 0 -15656104.688 -19940549.722 -2394207.143 10 0 60942 8100.00000 0 -15447657.104 -19455552.840 -5578939.942 10 0 60942 9000.00000 0 -14923425.349 -18721866.120 -8654689.110 10 0 60942 9900.00000 0 -14062172.620 -17793472.253 -11561319.767 10 0 60942 10800.00000 0 -12855272.415 -16729341.897 -14241992.401 10 0 60942 11700.00000 0 -11307322.904 -15590831.366 -16644297.240 10 0 60942 12600.00000 0 -9436206.039 -14438996.024 -18721298.736 10 0 60942 13500.00000 0 -7272587.490 -13331935.474 -20432467.843 10 0 60942 14400.00000 0 -4858877.967 -12322285.055 -21744482.554 10 0 60942 15300.00000 0 -2247699.796 -11454961.411 -22631880.294 10 0 60942 16200.00000 0 500076.006 -10765258.432 -23077549.385 10 0 60942 17100.00000 0 3317638.719 -10277374.071 -23073050.572 10 0 60942 18000.00000 0 6134795.009 -10003429.572 -22618763.383 10 0 60942 18900.00000 0 8880666.093 -9943020.904 -21723856.001 10 0 60942 19800.00000 0 11486411.646 -10083319.176 -20406081.001 10 0 60942 20700.00000 0 13887866.627 -10399713.189 -18691402.858 10 0 60942 21600.00000 0 16027981.660 -10856964.218 -16613466.419 10 0 60942 22500.00000 0 17858966.558 -11410821.665 -14212918.517 10 0 60942 23400.00000 0 19344049.659 -12010029.031 -11536597.569 10 0 60942 24300.00000 0 20458782.275 -12598633.800 -8636608.299 10 0 60942 25200.00000 0 21191836.959 -13118502.589 -5569300.553 10 0 60942 26100.00000 0 21545269.515 -13511935.075 -2394172.724 10 0 60942 27000.00000 0 21534237.144 -13724266.679 827278.740 10 0 60942 27900.00000 0 21186187.390 -13706351.239 4032741.697 10 0 60942 28800.00000 0 20539554.273 -13416820.340 7160280.239 10 0 60942 29700.00000 0 19642017.801 -12824025.822 10149514.243 10 0 60942 30600.00000 0 18548400.551 -11907585.267 12942765.219 10 0 60942 31500.00000 0 17318289.312 -10659466.868 15486148.025 10 0 60942 32400.00000 0 16013480.446 -9084568.899 17730589.351 10 0 60942 33300.00000 0 14695354.340 -7200769.571 19632755.332 10 0 60942 34200.00000 0 13422286.800 -5038444.382 21155872.296 10 0 60942 35100.00000 0 12247203.505 -2639469.462 22270426.480 10 0 60942 36000.00000 0 11215377.713 -55749.970 22954730.481 10 0 60942 36900.00000 0 10362561.683 2652668.274 23195346.190 10 0 60942 37800.00000 0 9713528.894 5419828.913 22987356.118 10 0 60942 38700.00000 0 9281087.804 8176347.864 22334477.213 10 0 60942 39600.00000 0 9065608.980 10852049.063 21249013.649 10 0 60942 40500.00000 0 9055086.757 13378646.502 19751647.576 10 0 60942 41400.00000 0 9225734.797 15692363.216 17871069.484 10 0 60942 42300.00000 0 9543092.830 17736379.368 15643452.685 10 0 60942 43200.00000 0 9963600.449 19463007.676 13111779.456 10 0 60942 44100.00000 0 10436573.760 20835504.621 10325029.392 10 0 60942 45000.00000 0 10906503.064 21829440.200 7337243.757 10 0 60942 45900.00000 0 11315575.238 22433566.813 4206482.644 10 0 60942 46800.00000 0 11606313.901 22650148.609 993694.558 10 0 60942 47700.00000 0 11724224.383 22494735.326 -2238479.263 10 0 60942 48600.00000 0 11620329.297 21995388.531 -5426941.551 10 0 60942 49500.00000 0 11253484.455 21191391.911 -8509390.909 10 0 60942 50400.00000 0 10592373.723 20131499.928 -11425562.252 10 0 60942 51300.00000 0 9617094.988 18871799.532 -14118429.119 10 0 60942 52200.00000 0 8320266.980 17473276.762 -16535341.832 10 0 60942 53100.00000 0 6707607.574 15999193.070 -18629076.918 10 0 60942 54000.00000 0 4797957.246 14512384.550 -20358775.352 10 0 60942 54900.00000 0 2622745.630 13072600.351 -21690749.903 10 0 60942 55800.00000 0 224923.396 11733994.539 -22599145.049 10 0 60942 56700.00000 0 -2342595.232 10542878.510 -23066436.468 10 0 60942 57600.00000 0 -5018913.015 9535829.130 -23083760.905 10 0 60942 58500.00000 0 -7737469.057 8738231.945 -22651071.037 10 0 60942 59400.00000 0 -10428598.692 8163319.449 -21777113.803 10 0 60942 60300.00000 0 -13022225.930 7811742.799 -20479234.421 10 0 60942 61200.00000 0 -15450575.441 7671692.296 -18783011.812 10 0 60942 62100.00000 0 -17650790.960 7719558.490 -16721734.492 10 0 60942 63000.00000 0 -19567351.645 7921102.902 -14335728.964 10 0 60942 63900.00000 0 -21154187.037 8233086.083 -11671555.338 10 0 60942 64800.00000 0 -22376404.508 8605281.871 -8781087.177 10 0 60942 65700.00000 0 -23211559.744 8982791.002 -5720494.491 10 0 60942 66600.00000 0 -23650420.177 9308555.365 -2549150.295 10 0 60942 67500.00000 0 -23697192.525 9525966.460 671517.817 10 0 60942 68400.00000 0 -23369207.853 9581458.409 3879209.041 10 0 60942 69300.00000 0 -22696079.807 9426977.169 7011941.379 10 0 60942 70200.00000 0 -21718373.114 9022223.251 10009232.340 10 0 60942 71100.00000 0 -20485839.147 8336575.080 12813246.899 10 0 60942 72000.00000 0 -19055292.583 7350613.520 15369892.304 10 0 60942 72900.00000 0 -17488217.372 6057184.587 17629840.492 10 0 60942 73800.00000 0 -15848200.668 4461956.208 19549460.464 10 0 60942 74700.00000 0 -14198300.062 2583445.361 21091644.484 10 0 60942 75600.00000 0 -12598451.780 452513.250 22226513.910 10 0 60942 76500.00000 0 -11103025.704 -1888652.542 22931992.296 10 0 60942 77400.00000 0 -9758627.243 -4388029.303 23194235.434 10 0 60942 78300.00000 0 -8602236.135 -6985665.155 23007910.146 10 0 60942 79200.00000 0 -7659759.009 -9615924.117 22376315.798 10 0 60942 80100.00000 0 -6945056.012 -12209980.482 21311344.933 10 0 60942 81000.00000 0 -6459482.871 -14698462.009 19833281.848 10 0 60942 81900.00000 0 -6191968.897 -17014134.568 17970440.647 10 0 60942 82800.00000 0 -6119629.528 -19094518.076 15758647.157 10 0 60942 83700.00000 0 -6208889.776 -20884325.370 13240572.049 10 0 60942 84600.00000 0 -6417073.330 -22337621.838 10464925.601 10 0 60942 85500.00000 0 -6694392.008 -23419614.206 7485527.719 10 0 60943 0.00000 0 -6986252.523 -24107991.535 4360270.153 10 0 60943 900.00000 0 -7235783.362 -24393760.085 1149988.703 10 0 60943 1800.00000 0 -7386473.599 -24281533.661 -2082728.198 10 0 60943 2700.00000 0 -7384810.674 -23789266.296 -5274775.920 10 0 60943 3600.00000 0 -7182802.383 -22947435.933 -8363785.190 10 0 60943 4500.00000 0 -6740273.272 -21797713.144 -11289363.766 10 0 60943 5400.00000 0 -6026834.743 -20391171.076 -13994301.234 10 0 60943 6300.00000 0 -5023442.174 -18786113.061 -16425710.890 10 0 60943 7200.00000 0 -3723470.263 -17045611.194 -18536084.002 10 0 60943 8100.00000 0 -2133258.877 -15234861.779 -20284233.899 10 0 60943 9000.00000 0 -272104.846 -13418471.359 -21636110.052 10 0 60943 9900.00000 0 1828300.642 -11657789.712 -22565465.417 10 0 60943 10800.00000 0 4124965.294 -10008403.685 -23054363.912 10 0 60943 11700.00000 0 6565173.009 -8517898.102 -23093518.633 10 0 60943 12600.00000 0 9088477.919 -7223977.900 -22682455.225 10 0 60943 13500.00000 0 11629030.349 -6153029.393 -21829498.739 10 0 60943 14400.00000 0 14118136.156 -5319179.253 -20551585.950 10 0 60943 15300.00000 0 16486941.510 -4723888.137 -18873908.744 10 0 60943 16200.00000 0 18669130.521 -4356092.842 -16829397.450 10 0 60943 17100.00000 0 20603523.267 -4192887.589 -14458056.016 10 0 60943 18000.00000 0 22236466.579 -4200712.376 -11806163.639 10 0 60943 18900.00000 0 23523919.329 -4336995.210 -8925359.787 10 0 60943 19800.00000 0 24433147.241 -4552176.503 -5871631.396 10 0 60943 20700.00000 0 24943958.973 -4792028.394 -2704222.654 10 0 60943 21600.00000 0 25049434.595 -5000170.183 515511.249 10 0 60943 22500.00000 0 24756118.775 -5120673.528 3725284.375 10 0 60943 23400.00000 0 24083673.053 -5100648.048 6863072.020 10 0 60943 24300.00000 0 23064003.778 -4892699.431 9868292.422 10 0 60943 25200.00000 0 21739903.425 -4457157.879 12682956.772 10 0 60943 26100.00000 0 20163262.610 -3763984.644 15252767.029 10 0 60943 27000.00000 0 18392927.146 -2794277.763 17528142.268 10 0 60943 27900.00000 0 16492288.437 -1541314.637 19465155.786 10 0 60943 28800.00000 0 14526705.997 -11087.850 21026366.804 10 0 60943 29700.00000 0 12560867.258 1777688.874 22181532.408 10 0 60943 30600.00000 0 10656192.258 3794106.430 22908187.333 10 0 60943 31500.00000 0 8868388.940 5996098.293 23192081.122 10 0 60943 32400.00000 0 7245258.856 8331950.489 23027464.374 10 0 60943 33300.00000 0 5824843.212 10742224.258 22417217.987 10 0 60943 34200.00000 0 4633985.799 13162014.984 21372821.617 10 0 60943 35100.00000 0 3687372.780 15523456.837 19914160.111 10 0 60943 36000.00000 0 2987090.234 17758371.765 18069169.292 10 0 60943 36900.00000 0 2522719.350 19800954.557 15873325.324 10 0 60943 37800.00000 0 2271967.038 21590383.113 13368984.870 10 0 60943 38700.00000 0 2201807.353 23073244.973 10604586.304 10 0 60943 39600.00000 0 2270087.384 24205677.608 7633725.441 10 0 60943 40500.00000 0 2427531.062 24955131.011 4514122.280 10 0 60943 41400.00000 0 2620056.758 25301676.170 1306498.142 10 0 60943 42300.00000 0 2791310.199 25238801.771 -1926614.771 10 0 60943 43200.00000 0 2885304.151 24773662.981 -5122107.262 10 0 60943 44100.00000 0 2849050.834 23926769.673 -8217544.815 10 0 60943 45000.00000 0 2635072.664 22731125.728 -11152410.417 10 0 60943 45900.00000 0 2203681.683 21230855.070 -13869311.799 10 0 60943 46800.00000 0 1524927.797 19479372.603 -16315127.011 10 0 60943 47700.00000 0 580130.254 17537178.250 -18442063.518 10 0 60943 48600.00000 0 -637074.968 15469368.715 -20208608.160 10 0 60943 49500.00000 0 -2120218.015 13342973.760 -21580347.981 10 0 60943 50400.00000 0 -3850031.112 11224231.162 -22530645.021 10 0 60943 51300.00000 0 -5795036.383 9175916.622 -23041151.776 10 0 60943 52200.00000 0 -7912660.380 7254841.960 -23102157.725 10 0 60943 53100.00000 0 -10150827.483 5509626.977 -22712761.202 10 0 60943 54000.00000 0 -12449964.041 3978837.893 -21880864.703 10 0 60943 54900.00000 0 -14745327.877 2689568.921 -20622995.510 10 0 60943 55800.00000 0 -16969564.391 1656524.097 -18963957.036 10 0 60943 56700.00000 0 -19055381.464 881634.819 -16936319.623 10 0 60943 57600.00000 0 -20938231.002 354225.628 -14579762.575 10 0 60943 58500.00000 0 -22558885.291 51717.573 -11940281.897 10 0 60943 59400.00000 0 -23865801.424 -59163.937 -9069280.537 10 0 60943 60300.00000 0 -24817176.564 -20730.796 -6022559.886 10 0 60943 61200.00000 0 -25382610.143 117704.289 -2859232.826 10 0 60943 62100.00000 0 -25544305.914 302154.905 359420.322 10 0 60943 63000.00000 0 -25297766.098 476479.674 3571130.933 10 0 60943 63900.00000 0 -24651950.963 584986.394 6713834.008 10 0 60943 64800.00000 0 -23628899.194 575012.496 9726850.895 10 0 60943 65700.00000 0 -22262826.344 399374.279 12552041.326 10 0 60943 66600.00000 0 -20598739.749 18583.302 15134904.195 10 0 60943 67500.00000 0 -18690627.622 -597261.825 17425607.777 10 0 60943 68400.00000 0 -16599296.922 -1466986.542 19379931.520 10 0 60943 69300.00000 0 -14389948.496 -2597316.156 20960103.162 10 0 60943 70200.00000 0 -12129588.228 -3982359.416 22135516.752 10 0 60943 71100.00000 0 -9884379.397 -5603622.430 22883319.074 10 0 60943 72000.00000 0 -7717043.763 -7430554.230 23188853.907 10 0 60943 72900.00000 0 -5684417.028 -9421603.840 23045955.753 10 0 60943 73800.00000 0 -3835258.398 -11525748.040 22457086.802 10 0 60943 74700.00000 0 -2208404.069 -13684429.673 21433313.250 10 0 60943 75600.00000 0 -831341.012 -15833829.255 19994119.608 10 0 60943 76500.00000 0 280739.283 -17907378.388 18167062.214 10 0 60943 77400.00000 0 1125366.612 -19838412.612 15987266.072 10 0 60943 78300.00000 0 1712678.182 -21562854.547 13496772.050 10 0 60943 79200.00000 0 2064768.131 -23021815.696 10743744.558 10 0 60943 80100.00000 0 2214526.057 -24164007.436 7781553.022 10 0 60943 81000.00000 0 2204012.129 -24947858.584 4667743.492 10 0 60943 81900.00000 0 2082436.536 -25343248.319 1462919.618 10 0 60943 82800.00000 0 1903828.661 -25332778.809 -1770445.071 10 0 60943 83700.00000 0 1724495.492 -24912531.063 -4969239.591 10 0 60943 84600.00000 0 1600378.666 -24092269.466 -8070966.985 10 0 60943 85500.00000 0 1584424.638 -22895084.252 -11014988.261 10 0 60944 0.00000 0 1724082.414 -21356485.752 -13743731.805 10 0 60944 900.00000 0 2059038.249 -19522987.257 -16203843.537 10 0 60944 1800.00000 0 2619286.124 -17450238.756 -18347249.292 10 0 60944 2700.00000 0 3423618.706 -15200788.555 -20132111.572 10 0 60944 3600.00000 0 4478604.573 -12841570.642 -21523656.770 10 0 60944 4500.00000 0 5778096.291 -10441224.557 -22494857.355 10 0 60944 5400.00000 0 7303290.668 -8067362.287 -23026955.263 10 0 60944 6300.00000 0 9023338.426 -5783898.179 -23109816.742 10 0 60944 7200.00000 0 10896476.768 -3648554.622 -22742112.710 10 0 60944 8100.00000 0 12871635.963 -1710647.804 -21931322.580 10 0 60944 9000.00000 0 14890451.016 -9245.222 -20693563.209 10 0 60944 9900.00000 0 16889592.518 1428229.835 -19053248.220 10 0 60944 10800.00000 0 18803317.792 2586891.222 -17042586.305 10 0 60944 11700.00000 0 20566134.651 3464746.244 -14700930.104 10 0 60944 12600.00000 0 22115465.982 4072504.125 -12073990.046 10 0 60944 13500.00000 0 23394204.006 4432848.497 -9212929.857 10 0 60944 14400.00000 0 24353048.315 4579208.045 -6173362.383 10 0 60944 15300.00000 0 24952531.395 4554080.080 -3014265.970 10 0 60944 16200.00000 0 25164648.856 4406979.926 203157.280 10 0 60944 17100.00000 0 24974028.349 4192104.050 3416659.408 10 0 60944 18000.00000 0 24378590.472 3965805.964 6564138.376 10 0 60944 18900.00000 0 23389675.988 3783991.093 9584821.682 10 0 60944 19800.00000 0 22031635.544 3699539.422 12420420.333 10 0 60944 20700.00000 0 20340899.865 3759863.096 15016232.552 10 0 60944 21600.00000 0 18364569.328 4004700.134 17322177.828 10 0 60944 22500.00000 0 16158580.979 4464235.544 19293743.395 10 0 60944 23400.00000 0 13785527.868 5157627.560 20892826.769 10 0 60944 24300.00000 0 11312219.269 6092000.368 22088459.865 10 0 60944 25200.00000 0 8807080.659 7261945.788 22857402.051 10 0 60944 26100.00000 0 6337498.680 8649555.962 23184591.520 10 0 60944 27000.00000 0 3967218.666 10224987.757 23063446.470 10 0 60944 27900.00000 0 1753900.421 11947538.068 22496009.774 10 0 60944 28800.00000 0 -253067.987 13767188.422 21492933.159 10 0 60944 29700.00000 0 -2014408.574 15626557.864 20073299.370 10 0 60944 30600.00000 0 -3502367.739 17463185.929 18264283.465 10 0 60944 31500.00000 0 -4701647.008 19212053.135 16100657.146 10 0 60944 32400.00000 0 -5609810.267 20808235.670 13624143.066 10 0 60944 33300.00000 0 -6237148.897 22189584.196 10882629.038 10 0 60944 34200.00000 0 -6606008.788 23299314.436 7929255.311 10 0 60944 35100.00000 0 -6749606.004 24088399.685 4821391.090 10 0 60944 36000.00000 0 -6710379.923 24517662.666 1619519.416 10 0 60944 36900.00000 0 -6537952.940 24559475.943 -1613947.802 10 0 60944 37800.00000 0 -6286783.429 24198996.226 -4815900.672 10 0 60944 38700.00000 0 -6013612.559 23434877.487 -7923782.547 10 0 60944 39600.00000 0 -5774815.209 22279430.108 -10876835.006 10 0 60944 40500.00000 0 -5623769.922 20758217.336 -13617309.854 10 0 60944 41400.00000 0 -5608362.389 18909104.834 -16091621.884 10 0 60944 42300.00000 0 -5768731.327 16780803.083 -18251417.491 10 0 60944 43200.00000 0 -6135355.016 14430964.560 -20054536.187 10 0 60944 44100.00000 0 -6727561.778 11923916.912 -21465844.757 10 0 60944 45000.00000 0 -7552528.926 9328129.047 -22457926.830 10 0 60944 45900.00000 0 -8604813.273 6713518.207 -23011614.214 10 0 60944 46800.00000 0 -9866432.932 4148712.442 -23116350.024 10 0 60944 47700.00000 0 -11307496.245 1698384.208 -22770377.521 10 0 60944 48600.00000 0 -12887350.046 -579233.042 -21980752.405 10 0 60944 49500.00000 0 -14556197.364 -2634541.970 -20763180.071 10 0 60944 50400.00000 0 -16257114.841 -4428401.743 -19141682.927 10 0 60944 51300.00000 0 -17928383.581 -5933497.950 -17148106.204 10 0 60944 52200.00000 0 -19506034.361 -7135207.830 -14821473.758 10 0 60944 53100.00000 0 -20926499.681 -8031928.149 -12207208.084 10 0 60944 54000.00000 0 -22129261.282 -8634855.854 -9356231.157 10 0 60944 54900.00000 0 -23059382.622 -8967234.503 -6323964.658 10 0 60944 55800.00000 0 -23669821.200 -9063101.561 -3169249.739 10 0 60944 56700.00000 0 -23923425.392 -8965592.085 46792.386 10 0 60944 57600.00000 0 -23794534.009 -8724872.265 3261937.081 10 0 60944 58500.00000 0 -23270113.573 -8395790.990 6414047.893 10 0 60944 59400.00000 0 -22350387.587 -8035348.651 9442261.044 10 0 60944 60300.00000 0 -21048932.985 -7700089.222 12288141.310 10 0 60944 61200.00000 0 -19392240.725 -7443524.259 14896788.588 10 0 60944 62100.00000 0 -17418759.099 -7313695.626 17217875.736 10 0 60944 63000.00000 0 -15177459.120 -7350977.681 19206599.647 10 0 60944 63900.00000 0 -12725980.402 -7586209.734 20824529.171 10 0 60944 64800.00000 0 -10128432.624 -8039236.047 22040335.259 10 0 60944 65700.00000 0 -7452941.315 -8717914.200 22830390.637 10 0 60944 66600.00000 0 -4769036.987 -9617633.774 23179228.282 10 0 60944 67500.00000 0 -2144992.995 -10721366.844 23079850.074 10 0 60944 68400.00000 0 354780.168 -12000250.322 22533879.205 10 0 60944 69300.00000 0 2672178.232 -13414678.613 21551552.245 10 0 60944 70200.00000 0 4757584.255 -14915864.120 20151549.202 10 0 60944 71100.00000 0 6571697.611 -16447803.630 18360662.593 10 0 60944 72000.00000 0 8086934.601 -17949571.298 16213309.289 10 0 60944 72900.00000 0 9288341.519 -19357844.605 13750891.912 10 0 60944 73800.00000 0 10173980.653 -20609558.944 11021019.575 10 0 60944 74700.00000 0 10754771.393 -21644579.860 8076600.969 10 0 60944 75600.00000 0 11053791.443 -22408280.024 4974825.841 10 0 60944 76500.00000 0 11105066.181 -22853910.860 1776053.815 10 0 60944 77400.00000 0 10951896.355 -22944666.408 -1457367.742 10 0 60944 78300.00000 0 10644794.674 -22655349.359 -4662332.997 10 0 60944 79200.00000 0 10239119.306 -21973565.728 -7776228.555 10 0 60944 80100.00000 0 9792506.071 -20900394.636 -10738179.442 10 0 60944 81000.00000 0 9362210.379 -19450502.329 -13490263.371 10 0 60944 81900.00000 0 9002474.286 -17651693.729 -15978667.060 10 0 60944 82800.00000 0 8762033.184 -15543919.392 -18154759.506 10 0 60944 83700.00000 0 8681870.519 -13177779.604 -19976059.226 10 0 60944 84600.00000 0 8793317.986 -10612589.141 -21407075.011 10 0 60944 85500.00000 0 9116583.308 -7914085.294 -22420002.838 10 0 60945 0.00000 0 9659768.697 -5151877.105 -22995265.067 10 0 60945 900.00000 0 10418421.931 -2396742.767 -23121882.029 10 0 60945 1800.00000 0 11375637.505 282106.730 -22797669.033 10 0 60945 2700.00000 0 12502703.288 2819687.493 -22029257.413 10 0 60945 3600.00000 0 13760262.991 5157711.419 -20831940.063 10 0 60945 4500.00000 0 15099943.832 7246762.928 -19229346.774 10 0 60945 5400.00000 0 16466378.909 9048094.403 -17252957.592 10 0 60945 6300.00000 0 17799537.616 10534967.931 -14941465.545 10 0 60945 7200.00000 0 19037264.850 11693490.509 -12340002.848 10 0 60945 8100.00000 0 20117921.670 12522911.446 -9499247.101 10 0 60945 9000.00000 0 20983016.417 13035373.315 -6474425.940 10 0 60945 9900.00000 0 21579716.402 13255130.583 -3324240.255 10 0 60945 10800.00000 0 21863135.824 13217271.922 -109727.200 10 0 60945 11700.00000 0 21798305.486 12966002.482 3106915.097 10 0 60945 12600.00000 0 21361743.452 12552560.057 6263518.857 10 0 60945 13500.00000 0 20542562.577 12032853.647 9299131.928 10 0 60945 14400.00000 0 19343070.081 11464923.660 12155175.491 10 0 60945 15300.00000 0 17778835.119 10906329.776 14776553.457 10 0 60945 16200.00000 0 15878221.963 10411574.829 17112694.052 10 0 60945 17100.00000 0 13681407.910 10029671.220 19118505.503 10 0 60945 18000.00000 0 11238925.691 9801950.201 20755229.329 10 0 60945 18900.00000 0 8609789.114 9760204.409 21991176.524 10 0 60945 19800.00000 0 5859277.264 9925240.454 22802333.852 10 0 60945 20700.00000 0 3056466.323 10305901.910 23172829.392 10 0 60945 21600.00000 0 271608.227 10898604.111 23095248.650 10 0 60945 22500.00000 0 -2426538.175 11687401.669 22570794.682 10 0 60945 23400.00000 0 -4973315.378 12644588.036 21609288.007 10 0 60945 24300.00000 0 -7310608.726 13731804.773 20229004.574 10 0 60945 25200.00000 0 -9389021.018 14901617.140 18456352.616 10 0 60945 26100.00000 0 -11169690.107 16099492.986 16325392.052 10 0 60945 27000.00000 0 -12625673.363 17266104.557 13877203.042 10 0 60945 27900.00000 0 -13742840.073 18339858.532 11159113.342 10 0 60945 28800.00000 0 -14520232.792 19259548.890 8223797.286 10 0 60945 29700.00000 0 -14969880.742 19967020.893 5128262.278 10 0 60945 30600.00000 0 -15116071.407 20409732.748 1932741.637 10 0 60945 31500.00000 0 -14994109.721 20543104.780 -1300484.680 10 0 60945 32400.00000 0 -14648616.635 20332554.068 -4508317.704 10 0 60945 33300.00000 0 -14131439.112 19755125.355 -7628089.997 10 0 60945 34200.00000 0 -13499261.046 18800645.972 -10598812.571 10 0 60945 35100.00000 0 -12811018.044 17472352.977 -13362391.404 10 0 60945 36000.00000 0 -12125227.957 15786963.524 -15864787.217 10 0 60945 36900.00000 0 -11497352.966 13774183.849 -18057093.403 10 0 60945 37800.00000 0 -10977307.641 11475676.737 -19896508.944 10 0 60945 38700.00000 0 -10607220.887 8943530.976 -21347185.770 10 0 60945 39600.00000 0 -10419548.337 6238297.866 -22380932.997 10 0 60945 40500.00000 0 -10435616.086 3426678.473 -22977764.065 10 0 60945 41400.00000 0 -10664657.576 578959.931 -23126276.430 10 0 60945 42300.00000 0 -11103383.698 -2233690.474 -22823857.363 10 0 60945 43200.00000 0 -11736102.944 -4941959.367 -22076713.235 10 0 60945 44100.00000 0 -12535384.659 -7481034.898 -20899723.461 10 0 60945 45000.00000 0 -13463235.250 -9793057.726 -19316123.873 10 0 60945 45900.00000 0 -14472735.482 -11829274.330 -17357027.646 10 0 60945 46800.00000 0 -15510067.821 -13551804.809 -15060794.993 10 0 60945 47700.00000 0 -16516846.668 -14934954.093 -12472265.632 10 0 60945 48600.00000 0 -17432652.199 -15966015.140 -9641870.402 10 0 60945 49500.00000 0 -18197660.589 -16645534.133 -6624640.410 10 0 60945 50400.00000 0 -18755260.021 -16987030.242 -3479133.751 10 0 60945 51300.00000 0 -19054543.158 -17016185.135 -266300.959 10 0 60945 52200.00000 0 -19052572.500 -16769539.128 2951688.912 10 0 60945 53100.00000 0 -18716324.985 -16292750.911 6112639.311 10 0 60945 54000.00000 0 -18024235.855 -15638495.269 9155512.257 10 0 60945 54900.00000 0 -16967278.570 -14864087.538 12021587.825 10 0 60945 55800.00000 0 -15549536.726 -14028934.141 14655576.330 10 0 60945 56700.00000 0 -13788244.649 -13191915.111 17006663.596 10 0 60945 57600.00000 0 -11713294.837 -12408806.761 19029471.193 10 0 60945 58500.00000 0 -9366231.898 -11729850.688 20684915.018 10 0 60945 59400.00000 0 -6798773.135 -11197569.111 21940947.489 10 0 60945 60300.00000 0 -4070914.821 -10844916.484 22773170.408 10 0 60945 61200.00000 0 -1248699.892 -10693843.781 23165307.591 10 0 60945 62100.00000 0 1598263.624 -10754335.305 23109528.429 10 0 60945 63000.00000 0 4399433.798 -11023958.911 22606615.752 10 0 60945 63900.00000 0 7086009.517 -11487949.938 21665973.626 10 0 60945 64800.00000 0 9593540.209 -12119827.431 20305473.231 10 0 60945 65700.00000 0 11864363.995 -12882519.483 18551137.515 10 0 60945 66600.00000 0 13849773.695 -13729953.302 16436668.137 10 0 60945 67500.00000 0 15511820.469 -14609045.899 14002821.171 10 0 60945 68400.00000 0 16824678.987 -15462013.910 11296641.042 10 0 60945 69300.00000 0 17775515.509 -16228906.709 8370565.394 10 0 60945 70200.00000 0 18364820.665 -16850256.524 5281416.629 10 0 60945 71100.00000 0 18606191.020 -17269733.092 2089298.792 10 0 60945 72000.00000 0 18525566.947 -17436689.074 -1143578.738 10 0 60945 72900.00000 0 18159957.787 -17308486.139 -4354127.132 10 0 60945 73800.00000 0 17555707.734 -16852500.218 -7479628.183 10 0 60945 74700.00000 0 16766376.182 -16047717.721 -10458982.069 10 0 60945 75600.00000 0 15850323.473 -14885851.898 -13233926.016 10 0 60945 76500.00000 0 14868106.177 -13371929.259 -15750197.491 10 0 60945 77400.00000 0 13879794.598 -11524319.011 -17958616.714 10 0 60945 78300.00000 0 12942328.607 -9374202.853 -19816065.227 10 0 60945 79200.00000 0 12107026.112 -6964506.883 -21286339.789 10 0 60945 80100.00000 0 11417351.503 -4348340.763 -22340863.925 10 0 60945 81000.00000 0 10907039.670 -1587010.564 -22959242.923 10 0 60945 81900.00000 0 10598655.268 1252310.171 -23129651.799 10 0 60945 82800.00000 0 10502647.620 4099152.262 -22849049.572 10 0 60945 83700.00000 0 10616939.860 6882456.889 -22123217.061 10 0 60945 84600.00000 0 10927067.682 9533301.994 -20966619.207 10 0 60945 85500.00000 0 11406859.449 11987535.092 -19402096.496 99